Time,TemperatureF,DewpointF,PressureIn,WindDirection,WindDirectionDegrees,WindSpeedMPH,WindSpeedGustMPH,Humidity,HourlyPrecipIn,Conditions,Clouds,dailyrainin,SoftwareType,DateUTC
2013-05-27 00:04:00,58.8,55.2,30.06,NW,315,0.0,0.0,88,0.02,,,0.00,WUHU216HW,2013-05-27 04:04:00,
2013-05-27 00:09:00,58.8,55.2,30.06,NNE,23,0.0,0.0,88,0.02,,,0.00,WUHU216HW,2013-05-27 04:09:00,
2013-05-27 00:14:00,58.8,55.2,30.05,SE,135,0.0,0.0,88,0.02,,,0.00,WUHU216HW,2013-05-27 04:14:00,
2013-05-27 00:19:00,58.8,55.2,30.05,South,180,0.0,0.0,88,0.02,,,0.00,WUHU216HW,2013-05-27 04:19:00,
2013-05-27 00:24:00,58.8,55.2,30.05,SSE,158,0.0,0.0,88,0.02,,,0.00,WUHU216HW,2013-05-27 04:24:00,
2013-05-27 00:29:00,58.8,55.2,30.04,SSE,158,0.0,0.0,88,0.02,,,0.00,WUHU216HW,2013-05-27 04:29:00,
2013-05-27 00:34:00,58.8,55.6,30.05,SSE,158,0.0,0.0,89,0.02,,,0.00,WUHU216HW,2013-05-27 04:34:00,
2013-05-27 00:39:00,58.8,55.6,30.04,SSE,158,0.0,0.0,89,0.02,,,0.00,WUHU216HW,2013-05-27 04:39:00,
2013-05-27 00:44:00,58.8,55.6,30.04,SSE,158,0.0,0.0,89,0.02,,,0.00,WUHU216HW,2013-05-27 04:44:00,
2013-05-27 00:49:00,58.6,55.4,30.04,SSE,158,0.0,0.0,89,0.02,,,0.00,WUHU216HW,2013-05-27 04:49:00,
2013-05-27 00:54:00,58.6,55.4,30.04,East,90,0.0,0.0,89,0.02,,,0.00,WUHU216HW,2013-05-27 04:54:00,
2013-05-27 00:59:00,58.6,55.4,30.04,East,90,0.0,0.0,89,0.00,,,0.00,WUHU216HW,2013-05-27 04:59:00,
2013-05-27 01:04:00,58.6,55.4,30.03,East,90,0.0,0.0,89,0.00,,,0.00,WUHU216HW,2013-05-27 05:04:00,
2013-05-27 01:09:00,58.6,55.4,30.03,East,90,0.0,0.0,89,0.00,,,0.00,WUHU216HW,2013-05-27 05:09:00,
2013-05-27 01:14:00,58.4,55.2,30.03,East,90,0.0,0.0,89,0.00,,,0.00,WUHU216HW,2013-05-27 05:14:00,
2013-05-27 01:19:00,58.4,55.2,30.03,East,90,0.0,0.0,89,0.00,,,0.00,WUHU216HW,2013-05-27 05:19:00,
2013-05-27 01:24:00,58.2,55.0,30.03,East,90,0.0,0.0,89,0.00,,,0.00,WUHU216HW,2013-05-27 05:24:00,
2013-05-27 01:29:00,58.2,55.0,30.03,East,90,0.0,0.0,89,0.00,,,0.00,WUHU216HW,2013-05-27 05:29:00,
2013-05-27 01:34:00,58.2,55.0,30.03,East,90,0.0,0.0,89,0.00,,,0.00,WUHU216HW,2013-05-27 05:34:00,
2013-05-27 01:39:00,58.1,54.8,30.03,East,90,0.0,0.0,89,0.00,,,0.00,WUHU216HW,2013-05-27 05:39:00,
2013-05-27 01:44:00,58.1,54.8,30.03,East,90,0.0,0.0,89,0.00,,,0.00,WUHU216HW,2013-05-27 05:44:00,
2013-05-27 01:49:00,57.9,54.7,30.03,East,90,0.0,0.0,89,0.00,,,0.00,WUHU216HW,2013-05-27 05:49:00,
2013-05-27 01:54:00,57.9,54.7,30.03,East,90,0.0,0.0,89,0.00,,,0.00,WUHU216HW,2013-05-27 05:54:00,
2013-05-27 01:59:00,57.9,54.7,30.03,East,90,0.0,0.0,89,0.00,,,0.00,WUHU216HW,2013-05-27 05:59:00,
2013-05-27 02:04:00,57.7,54.5,30.03,East,90,0.0,0.0,89,0.00,,,0.00,WUHU216HW,2013-05-27 06:04:00,
2013-05-27 02:09:00,57.7,54.5,30.03,East,90,0.0,0.0,89,0.00,,,0.00,WUHU216HW,2013-05-27 06:09:00,
2013-05-27 02:14:00,57.7,54.5,30.03,East,90,0.0,0.0,89,0.00,,,0.00,WUHU216HW,2013-05-27 06:14:00,
2013-05-27 02:19:00,57.7,54.5,30.03,East,90,0.0,0.0,89,0.00,,,0.00,WUHU216HW,2013-05-27 06:19:00,
2013-05-27 02:24:00,57.7,54.5,30.03,East,90,0.0,0.0,89,0.00,,,0.00,WUHU216HW,2013-05-27 06:24:00,
2013-05-27 02:29:00,57.5,54.3,30.03,East,90,0.0,0.0,89,0.00,,,0.00,WUHU216HW,2013-05-27 06:29:00,
2013-05-27 02:34:00,57.5,54.3,30.03,East,90,0.0,0.0,89,0.00,,,0.00,WUHU216HW,2013-05-27 06:34:00,
2013-05-27 02:39:00,57.5,54.3,30.03,East,90,0.0,0.0,89,0.00,,,0.00,WUHU216HW,2013-05-27 06:39:00,
2013-05-27 02:44:00,57.5,54.3,30.03,East,90,0.0,0.0,89,0.00,,,0.00,WUHU216HW,2013-05-27 06:44:00,
2013-05-27 02:49:00,57.5,54.3,30.03,East,90,0.0,0.0,89,0.00,,,0.00,WUHU216HW,2013-05-27 06:49:00,
2013-05-27 02:54:00,57.5,54.3,30.03,East,90,0.0,0.0,89,0.00,,,0.00,WUHU216HW,2013-05-27 06:54:00,
2013-05-27 02:59:00,57.5,54.3,30.03,East,90,0.0,0.0,89,0.00,,,0.00,WUHU216HW,2013-05-27 06:59:00,
2013-05-27 03:04:00,57.3,54.1,30.03,East,90,0.0,0.0,89,0.00,,,0.00,WUHU216HW,2013-05-27 07:04:00,
2013-05-27 03:09:00,57.3,54.1,30.03,East,90,0.0,0.0,89,0.00,,,0.00,WUHU216HW,2013-05-27 07:09:00,
2013-05-27 03:14:00,57.3,54.1,30.03,SSE,158,0.0,0.0,89,0.00,,,0.00,WUHU216HW,2013-05-27 07:14:00,
2013-05-27 03:19:00,57.3,54.1,30.03,SSE,158,0.0,0.0,89,0.00,,,0.00,WUHU216HW,2013-05-27 07:19:00,
2013-05-27 03:24:00,57.3,54.1,30.03,SSE,158,0.0,0.0,89,0.00,,,0.00,WUHU216HW,2013-05-27 07:24:00,
2013-05-27 03:29:00,57.3,54.5,30.03,SSE,158,0.0,0.0,90,0.00,,,0.00,WUHU216HW,2013-05-27 07:29:00,
2013-05-27 03:34:00,57.3,54.5,30.03,SSE,158,0.0,0.0,90,0.00,,,0.00,WUHU216HW,2013-05-27 07:34:00,
2013-05-27 03:39:00,57.3,54.5,30.03,SSE,158,0.0,0.0,90,0.00,,,0.00,WUHU216HW,2013-05-27 07:39:00,
2013-05-27 03:44:00,57.3,54.5,30.03,SSE,158,0.0,0.0,90,0.00,,,0.00,WUHU216HW,2013-05-27 07:44:00,
2013-05-27 03:49:00,57.3,54.5,30.02,SSE,158,0.0,0.0,90,0.00,,,0.00,WUHU216HW,2013-05-27 07:49:00,
2013-05-27 03:54:00,57.3,54.5,30.02,SSE,158,0.0,0.0,90,0.00,,,0.00,WUHU216HW,2013-05-27 07:54:00,
2013-05-27 03:59:00,57.3,54.5,30.02,SSE,158,0.0,0.0,90,0.00,,,0.00,WUHU216HW,2013-05-27 07:59:00,
2013-05-27 04:04:00,57.3,54.5,30.02,SSE,158,0.0,0.0,90,0.00,,,0.00,WUHU216HW,2013-05-27 08:04:00,
2013-05-27 04:09:00,57.3,54.5,30.02,SSE,158,0.0,0.0,90,0.00,,,0.00,WUHU216HW,2013-05-27 08:09:00,
2013-05-27 04:14:00,57.3,54.5,30.02,SSE,158,0.0,0.0,90,0.00,,,0.00,WUHU216HW,2013-05-27 08:14:00,
2013-05-27 04:19:00,57.3,54.5,30.02,SSE,158,0.0,0.0,90,0.00,,,0.00,WUHU216HW,2013-05-27 08:19:00,
2013-05-27 04:24:00,57.3,54.5,30.02,SSE,158,0.0,0.0,90,0.00,,,0.00,WUHU216HW,2013-05-27 08:24:00,
2013-05-27 04:29:00,57.3,54.5,30.02,SSE,158,0.0,0.0,90,0.00,,,0.00,WUHU216HW,2013-05-27 08:29:00,
2013-05-27 04:34:00,57.3,54.5,30.01,SSE,158,0.0,0.0,90,0.00,,,0.00,WUHU216HW,2013-05-27 08:34:00,
2013-05-27 04:39:00,57.3,54.5,30.01,SSE,158,0.0,0.0,90,0.00,,,0.00,WUHU216HW,2013-05-27 08:39:00,
2013-05-27 04:44:00,57.3,54.5,30.01,SSE,158,0.0,0.0,90,0.00,,,0.00,WUHU216HW,2013-05-27 08:44:00,
2013-05-27 04:49:00,57.3,54.5,30.01,SSE,158,0.0,0.0,90,0.00,,,0.00,WUHU216HW,2013-05-27 08:49:00,
2013-05-27 04:54:00,57.3,54.5,30.01,SSE,158,0.0,0.0,90,0.00,,,0.00,WUHU216HW,2013-05-27 08:54:00,
2013-05-27 04:59:00,57.3,54.5,30.01,SSE,158,0.0,0.0,90,0.00,,,0.00,WUHU216HW,2013-05-27 08:59:00,
2013-05-27 05:04:00,57.2,54.3,30.02,SSE,158,0.0,0.0,90,0.00,,,0.00,WUHU216HW,2013-05-27 09:04:00,
2013-05-27 05:09:00,57.2,54.3,30.02,SSE,158,0.0,0.0,90,0.00,,,0.00,WUHU216HW,2013-05-27 09:09:00,
2013-05-27 05:14:00,57.0,54.1,30.01,SSE,158,0.0,0.0,90,0.00,,,0.00,WUHU216HW,2013-05-27 09:14:00,
2013-05-27 05:19:00,57.0,54.1,30.02,SSE,158,0.0,0.0,90,0.00,,,0.00,WUHU216HW,2013-05-27 09:19:00,
2013-05-27 05:24:00,57.0,54.1,30.02,SSE,158,0.0,0.0,90,0.00,,,0.00,WUHU216HW,2013-05-27 09:24:00,
2013-05-27 05:29:00,57.0,54.1,30.02,SSE,158,0.0,0.0,90,0.00,,,0.00,WUHU216HW,2013-05-27 09:29:00,
2013-05-27 05:34:00,57.0,54.1,30.01,SSE,158,0.0,0.0,90,0.00,,,0.00,WUHU216HW,2013-05-27 09:34:00,
2013-05-27 05:39:00,57.0,54.1,30.02,SSE,158,0.0,0.0,90,0.00,,,0.00,WUHU216HW,2013-05-27 09:39:00,
2013-05-27 05:44:00,57.0,54.1,30.02,SSE,158,0.0,0.0,90,0.00,,,0.00,WUHU216HW,2013-05-27 09:44:00,
2013-05-27 05:49:00,56.8,53.9,30.01,SSE,158,0.0,0.0,90,0.00,,,0.00,WUHU216HW,2013-05-27 09:49:00,
2013-05-27 05:54:00,56.8,53.9,30.01,SSE,158,0.0,0.0,90,0.00,,,0.00,WUHU216HW,2013-05-27 09:54:00,
2013-05-27 05:59:00,56.8,53.9,30.01,SSE,158,0.0,0.0,90,0.00,,,0.00,WUHU216HW,2013-05-27 09:59:00,
2013-05-27 06:04:00,56.8,53.9,30.01,SSE,158,0.0,0.0,90,0.00,,,0.00,WUHU216HW,2013-05-27 10:04:00,
2013-05-27 06:09:00,56.8,53.9,30.02,SSE,158,0.0,0.0,90,0.00,,,0.00,WUHU216HW,2013-05-27 10:09:00,
2013-05-27 06:14:00,56.8,53.9,30.01,SSE,158,0.0,0.0,90,0.00,,,0.00,WUHU216HW,2013-05-27 10:14:00,
2013-05-27 06:19:00,56.6,53.7,30.01,SSE,158,0.0,0.0,90,0.00,,,0.00,WUHU216HW,2013-05-27 10:19:00,
2013-05-27 06:24:00,56.4,53.6,30.01,SSE,158,0.0,0.0,90,0.00,,,0.00,WUHU216HW,2013-05-27 10:24:00,
2013-05-27 06:29:00,56.4,53.6,30.01,SSE,158,0.0,0.0,90,0.00,,,0.00,WUHU216HW,2013-05-27 10:29:00,
2013-05-27 06:34:00,56.4,53.6,30.01,SSE,158,0.0,0.0,90,0.00,,,0.00,WUHU216HW,2013-05-27 10:34:00,
2013-05-27 06:39:00,56.4,53.6,30.02,SSE,158,0.0,0.0,90,0.00,,,0.00,WUHU216HW,2013-05-27 10:39:00,
2013-05-27 06:44:00,56.4,53.4,30.02,SSE,158,0.0,0.0,90,0.00,,,0.00,WUHU216HW,2013-05-27 10:44:00,
2013-05-27 06:49:00,56.3,53.4,30.02,SSE,158,0.0,0.0,90,0.00,,,0.00,WUHU216HW,2013-05-27 10:49:00,
2013-05-27 06:54:00,56.3,53.4,30.02,SSE,158,0.0,0.0,90,0.00,,,0.00,WUHU216HW,2013-05-27 10:54:00,
2013-05-27 06:59:00,56.1,53.2,30.02,SSE,158,0.0,0.0,91,0.00,,,0.00,WUHU216HW,2013-05-27 10:59:00,
2013-05-27 07:04:00,56.1,53.2,30.02,SSE,158,0.0,0.0,90,0.00,,,0.00,WUHU216HW,2013-05-27 11:04:00,
2013-05-27 07:09:00,56.1,53.5,30.02,SSE,158,0.0,0.0,91,0.00,,,0.00,WUHU216HW,2013-05-27 11:09:00,
2013-05-27 07:14:00,56.1,53.5,30.02,SSE,158,0.0,0.0,91,0.00,,,0.00,WUHU216HW,2013-05-27 11:14:00,
2013-05-27 07:19:00,56.1,53.5,30.02,SSE,158,0.0,0.0,91,0.00,,,0.00,WUHU216HW,2013-05-27 11:19:00,
2013-05-27 07:24:00,56.1,53.5,30.02,SSE,158,0.0,0.0,91,0.00,,,0.00,WUHU216HW,2013-05-27 11:24:00,
2013-05-27 07:29:00,56.1,53.5,30.02,SSE,158,0.0,0.0,91,0.00,,,0.00,WUHU216HW,2013-05-27 11:29:00,
2013-05-27 07:34:00,56.3,53.7,30.02,SSE,158,0.0,0.0,91,0.00,,,0.00,WUHU216HW,2013-05-27 11:34:00,
2013-05-27 07:39:00,56.3,53.7,30.01,SSE,158,0.0,0.0,91,0.00,,,0.00,WUHU216HW,2013-05-27 11:39:00,
2013-05-27 07:45:00,56.4,53.8,30.01,SSE,158,0.0,0.0,91,0.00,,,0.00,WUHU216HW,2013-05-27 11:45:00,
2013-05-27 07:50:00,56.4,53.8,30.01,SSE,158,0.0,0.0,91,0.00,,,0.00,WUHU216HW,2013-05-27 11:50:00,
2013-05-27 07:55:00,56.4,53.8,30.01,SSE,158,0.0,0.0,91,0.00,,,0.00,WUHU216HW,2013-05-27 11:55:00,
2013-05-27 08:00:00,56.8,54.2,30.01,SSE,158,0.0,0.0,91,0.00,,,0.00,WUHU216HW,2013-05-27 12:00:00,
2013-05-27 08:05:00,56.8,54.2,30.01,SSE,158,0.0,0.0,91,0.00,,,0.00,WUHU216HW,2013-05-27 12:05:00,
2013-05-27 08:10:00,56.8,54.2,30.01,SSE,158,0.0,0.0,91,0.00,,,0.00,WUHU216HW,2013-05-27 12:10:00,
2013-05-27 08:15:00,57.0,54.4,30.01,SSE,158,0.0,0.0,91,0.00,,,0.00,WUHU216HW,2013-05-27 12:15:00,
2013-05-27 08:20:00,57.0,54.4,30.00,SSE,158,0.0,0.0,91,0.00,,,0.00,WUHU216HW,2013-05-27 12:20:00,
2013-05-27 08:25:00,57.3,54.7,30.00,ENE,68,0.0,0.0,91,0.00,,,0.00,WUHU216HW,2013-05-27 12:25:00,
2013-05-27 08:30:00,57.3,54.7,30.00,ENE,68,0.0,0.0,91,0.00,,,0.00,WUHU216HW,2013-05-27 12:30:00,
2013-05-27 08:35:00,57.3,54.7,29.99,ENE,68,0.0,0.0,91,0.00,,,0.00,WUHU216HW,2013-05-27 12:35:00,
2013-05-27 08:40:00,57.5,54.9,29.99,ENE,68,0.0,0.0,91,0.00,,,0.00,WUHU216HW,2013-05-27 12:40:00,
2013-05-27 08:45:00,57.7,55.1,29.99,ENE,68,0.0,0.0,91,0.00,,,0.00,WUHU216HW,2013-05-27 12:45:00,
2013-05-27 08:50:00,57.9,55.3,29.98,ENE,68,0.0,0.0,91,0.00,,,0.00,WUHU216HW,2013-05-27 12:50:00,
2013-05-27 08:55:00,57.9,55.3,29.99,SE,135,0.0,0.0,91,0.00,,,0.00,WUHU216HW,2013-05-27 12:55:00,
2013-05-27 09:00:00,58.2,55.6,29.98,ENE,68,0.0,0.0,91,0.00,,,0.00,WUHU216HW,2013-05-27 13:00:00,
2013-05-27 09:05:00,58.6,56.0,29.98,ENE,68,0.0,0.0,91,0.00,,,0.00,WUHU216HW,2013-05-27 13:05:00,
2013-05-27 09:10:00,58.8,56.2,29.98,ENE,68,0.0,0.0,91,0.00,,,0.00,WUHU216HW,2013-05-27 13:10:00,
2013-05-27 09:15:00,59.0,56.2,29.98,ESE,113,0.0,0.0,91,0.00,,,0.00,WUHU216HW,2013-05-27 13:15:00,
2013-05-27 09:20:00,59.5,56.9,29.99,East,90,0.0,0.0,91,0.00,,,0.00,WUHU216HW,2013-05-27 13:20:00,
2013-05-27 09:25:00,59.7,57.1,29.98,NNE,23,0.0,0.0,91,0.00,,,0.00,WUHU216HW,2013-05-27 13:25:00,
2013-05-27 09:30:00,60.4,58.1,29.98,SE,135,0.0,0.0,92,0.00,,,0.00,WUHU216HW,2013-05-27 13:30:00,
2013-05-27 09:35:00,60.6,58.3,29.97,SSE,158,0.0,0.0,92,0.00,,,0.00,WUHU216HW,2013-05-27 13:35:00,
2013-05-27 09:40:00,60.9,58.3,29.97,NE,45,0.0,0.0,91,0.00,,,0.00,WUHU216HW,2013-05-27 13:40:00,
2013-05-27 09:45:00,61.5,58.9,29.97,SE,135,0.0,0.0,91,0.00,,,0.00,WUHU216HW,2013-05-27 13:45:00,
2013-05-27 09:50:00,61.8,59.2,29.97,South,180,2.6,2.6,91,0.00,,,0.00,WUHU216HW,2013-05-27 13:50:00,
2013-05-27 09:55:00,62.2,59.6,29.96,SE,135,0.0,2.6,91,0.00,,,0.00,WUHU216HW,2013-05-27 13:55:00,
2013-05-27 10:00:00,62.6,59.7,29.97,ESE,113,0.0,6.7,90,0.00,,,0.00,WUHU216HW,2013-05-27 14:00:00,
2013-05-27 10:05:00,62.9,60.0,29.97,SSE,158,0.0,6.7,90,0.00,,,0.00,WUHU216HW,2013-05-27 14:05:00,
2013-05-27 10:10:00,63.1,60.2,29.97,South,180,0.0,0.0,90,0.00,,,0.00,WUHU216HW,2013-05-27 14:10:00,
2013-05-27 10:15:00,63.3,60.0,29.97,SE,135,0.0,0.0,89,0.00,,,0.00,WUHU216HW,2013-05-27 14:15:00,
2013-05-27 10:20:00,63.8,60.6,29.97,NW,315,0.0,0.0,89,0.00,,,0.00,WUHU216HW,2013-05-27 14:20:00,
2013-05-27 10:25:00,64.2,60.9,29.97,ENE,68,0.0,0.0,89,0.00,,,0.00,WUHU216HW,2013-05-27 14:25:00,
2013-05-27 10:30:00,64.2,61.3,29.97,ESE,113,0.0,0.0,90,0.00,,,0.00,WUHU216HW,2013-05-27 14:30:00,
2013-05-27 10:35:00,64.7,61.5,29.97,ENE,68,0.0,0.0,89,0.00,,,0.00,WUHU216HW,2013-05-27 14:35:00,
2013-05-27 10:40:00,65.1,61.8,29.97,SW,225,0.0,0.0,89,0.00,,,0.00,WUHU216HW,2013-05-27 14:40:00,
2013-05-27 10:45:00,65.6,62.1,29.97,SE,135,4.6,4.6,89,0.00,,,0.00,WUHU216HW,2013-05-27 14:45:00,
2013-05-27 10:50:00,66.0,62.3,29.96,ESE,113,0.0,4.6,88,0.00,,,0.00,WUHU216HW,2013-05-27 14:50:00,
2013-05-27 10:55:00,66.0,62.3,29.97,ESE,113,0.0,4.6,88,0.00,,,0.00,WUHU216HW,2013-05-27 14:55:00,
2013-05-27 11:00:00,66.3,62.6,29.97,SSE,158,0.0,0.0,88,0.00,,,0.00,WUHU216HW,2013-05-27 15:00:00,
2013-05-27 11:05:00,66.5,62.8,29.96,SE,135,0.0,0.0,88,0.00,,,0.00,WUHU216HW,2013-05-27 15:05:00,
2013-05-27 11:10:00,66.7,63.0,29.96,NE,45,0.0,0.0,88,0.00,,,0.00,WUHU216HW,2013-05-27 15:10:00,
2013-05-27 11:15:00,66.9,63.2,29.96,ESE,113,0.0,0.0,88,0.00,,,0.00,WUHU216HW,2013-05-27 15:15:00,
2013-05-27 11:20:00,67.2,63.2,29.96,SE,135,0.0,0.0,87,0.00,,,0.00,WUHU216HW,2013-05-27 15:20:00,
2013-05-27 11:25:00,67.8,63.7,29.96,SE,135,1.1,9.1,87,0.00,,,0.00,WUHU216HW,2013-05-27 15:25:00,
2013-05-27 11:30:00,68.7,64.0,29.95,SSE,158,2.0,9.1,85,0.00,,,0.00,WUHU216HW,2013-05-27 15:30:00,
2013-05-27 11:35:00,69.0,64.3,29.95,SSW,203,0.0,8.0,85,0.00,,,0.00,WUHU216HW,2013-05-27 15:35:00,
2013-05-27 11:40:00,69.4,64.6,29.95,South,180,0.0,2.0,85,0.00,,,0.00,WUHU216HW,2013-05-27 15:40:00,
2013-05-27 11:45:00,69.9,65.2,29.95,SW,225,0.0,0.0,85,0.00,,,0.00,WUHU216HW,2013-05-27 15:45:00,
2013-05-27 11:50:00,70.3,65.2,29.95,South,180,0.0,0.0,84,0.00,,,0.00,WUHU216HW,2013-05-27 15:50:00,
2013-05-27 11:55:00,70.7,65.5,29.95,South,180,0.0,0.0,84,0.00,,,0.00,WUHU216HW,2013-05-27 15:55:00,
2013-05-27 12:00:00,71.4,65.6,29.95,SE,135,0.6,0.6,83,0.00,,,0.00,WUHU216HW,2013-05-27 16:00:00,
2013-05-27 12:05:00,71.9,66.1,29.95,SSE,158,0.0,0.6,82,0.00,,,0.00,WUHU216HW,2013-05-27 16:05:00,
2013-05-27 12:10:00,72.3,66.5,29.95,South,180,0.0,0.6,82,0.00,,,0.00,WUHU216HW,2013-05-27 16:10:00,
2013-05-27 12:15:00,72.8,66.7,29.95,SSE,158,0.2,0.2,81,0.00,,,0.00,WUHU216HW,2013-05-27 16:15:00,
2013-05-27 12:20:00,73.2,66.7,29.95,NW,315,6.4,6.4,80,0.00,,,0.00,WUHU216HW,2013-05-27 16:20:00,
2013-05-27 12:25:00,73.5,66.7,29.95,SE,135,0.0,6.4,79,0.00,,,0.00,WUHU216HW,2013-05-27 16:25:00,
2013-05-27 12:30:00,73.7,66.7,29.95,SSE,158,0.0,6.4,79,0.00,,,0.00,WUHU216HW,2013-05-27 16:30:00,
2013-05-27 12:35:00,73.7,66.5,29.95,SE,135,0.0,3.8,78,0.00,,,0.00,WUHU216HW,2013-05-27 16:35:00,
2013-05-27 12:40:00,73.7,66.1,29.95,SSE,158,0.0,0.0,77,0.00,,,0.00,WUHU216HW,2013-05-27 16:40:00,
2013-05-27 12:45:00,73.9,66.3,29.94,South,180,0.0,0.0,77,0.00,,,0.00,WUHU216HW,2013-05-27 16:45:00,
2013-05-27 12:50:00,74.1,66.8,29.94,SE,135,0.0,6.4,77,0.00,,,0.00,WUHU216HW,2013-05-27 16:50:00,
2013-05-27 12:55:00,74.1,66.4,29.94,South,180,0.0,6.4,77,0.00,,,0.00,WUHU216HW,2013-05-27 16:55:00,
2013-05-27 13:00:00,74.3,66.2,29.94,SE,135,0.0,5.3,76,0.00,,,0.00,WUHU216HW,2013-05-27 17:00:00,
2013-05-27 13:05:00,74.3,66.2,29.93,SW,225,0.0,0.0,76,0.00,,,0.00,WUHU216HW,2013-05-27 17:05:00,
2013-05-27 13:10:00,74.4,66.0,29.93,SW,225,0.0,0.0,75,0.00,,,0.00,WUHU216HW,2013-05-27 17:10:00,
2013-05-27 13:15:00,75.0,66.3,29.93,SW,225,0.0,6.0,75,0.00,,,0.00,WUHU216HW,2013-05-27 17:15:00,
2013-05-27 13:20:00,75.0,66.9,29.92,ENE,68,0.0,6.0,76,0.00,,,0.00,WUHU216HW,2013-05-27 17:20:00,
2013-05-27 13:25:00,75.3,67.2,29.92,SE,135,0.0,0.0,76,0.00,,,0.00,WUHU216HW,2013-05-27 17:25:00,
2013-05-27 13:30:00,75.3,67.2,29.92,SE,135,0.0,0.0,76,0.00,,,0.00,WUHU216HW,2013-05-27 17:30:00,
2013-05-27 13:35:00,75.9,67.8,29.91,SE,135,2.4,2.4,76,0.00,,,0.00,WUHU216HW,2013-05-27 17:35:00,
2013-05-27 13:40:00,76.2,67.7,29.91,NW,315,0.0,2.4,75,0.00,,,0.00,WUHU216HW,2013-05-27 17:40:00,
2013-05-27 13:45:00,77.1,67.8,29.91,SSE,158,0.0,2.4,74,0.00,,,0.00,WUHU216HW,2013-05-27 17:45:00,
2013-05-27 13:50:00,77.7,68.7,29.91,SE,135,8.9,8.9,74,0.00,,,0.00,WUHU216HW,2013-05-27 17:50:00,
2013-05-27 13:55:00,78.0,68.6,29.91,SSE,158,0.0,8.9,73,0.00,,,0.00,WUHU216HW,2013-05-27 17:55:00,
2013-05-27 14:00:00,78.8,68.7,29.90,SSE,158,6.2,8.9,71,0.00,,,0.00,WUHU216HW,2013-05-27 18:00:00,
2013-05-27 14:05:00,79.1,68.9,29.90,SSE,158,0.0,6.2,71,0.00,,,0.00,WUHU216HW,2013-05-27 18:05:00,
2013-05-27 14:10:00,79.3,68.7,29.90,SW,225,6.4,6.7,70,0.00,,,0.00,WUHU216HW,2013-05-27 18:10:00,
2013-05-27 14:15:00,79.7,69.0,29.90,SSE,158,0.0,6.7,70,0.00,,,0.00,WUHU216HW,2013-05-27 18:15:00,
2013-05-27 14:20:00,79.8,68.8,29.90,South,180,1.5,1.5,69,0.00,,,0.00,WUHU216HW,2013-05-27 18:20:00,
2013-05-27 14:25:00,79.8,68.3,29.90,SE,135,0.0,1.5,68,0.00,,,0.00,WUHU216HW,2013-05-27 18:25:00,
2013-05-27 14:30:00,80.2,68.2,29.90,NE,45,0.0,6.2,67,0.00,,,0.00,WUHU216HW,2013-05-27 18:30:00,
2013-05-27 14:35:00,80.2,68.2,29.90,SSE,158,7.8,7.8,67,0.00,,,0.00,WUHU216HW,2013-05-27 18:35:00,
2013-05-27 14:40:00,80.0,68.0,29.90,South,180,0.0,7.8,67,0.00,,,0.00,WUHU216HW,2013-05-27 18:40:00,
2013-05-27 14:45:00,80.0,68.0,29.90,SE,135,0.0,7.8,67,0.00,,,0.00,WUHU216HW,2013-05-27 18:45:00,
2013-05-27 14:50:00,80.0,68.0,29.90,NW,315,0.0,0.8,67,0.00,,,0.00,WUHU216HW,2013-05-27 18:50:00,
2013-05-27 14:55:00,79.8,67.9,29.90,NNW,338,0.0,0.0,67,0.00,,,0.00,WUHU216HW,2013-05-27 18:55:00,
2013-05-27 15:00:00,79.5,67.5,29.90,SE,135,0.0,0.0,67,0.00,,,0.00,WUHU216HW,2013-05-27 19:00:00,
2013-05-27 15:05:00,79.5,67.1,29.90,SSE,158,0.0,0.0,66,0.00,,,0.00,WUHU216HW,2013-05-27 19:05:00,
2013-05-27 15:10:00,79.5,67.5,29.90,North,0,0.0,0.0,67,0.00,,,0.00,WUHU216HW,2013-05-27 19:10:00,
2013-05-27 15:15:00,79.8,67.9,29.90,SSE,158,0.0,0.0,67,0.00,,,0.00,WUHU216HW,2013-05-27 19:15:00,
2013-05-27 15:20:00,79.8,67.9,29.90,SE,135,0.0,0.0,67,0.00,,,0.00,WUHU216HW,2013-05-27 19:20:00,
2013-05-27 15:25:00,79.7,67.7,29.90,West,270,0.0,0.8,67,0.00,,,0.00,WUHU216HW,2013-05-27 19:25:00,
2013-05-27 15:30:00,79.8,67.9,29.90,East,90,0.0,2.6,67,0.00,,,0.00,WUHU216HW,2013-05-27 19:30:00,
2013-05-27 15:35:00,80.2,67.8,29.90,North,0,0.0,2.6,66,0.00,,,0.00,WUHU216HW,2013-05-27 19:35:00,
2013-05-27 15:40:00,80.2,67.8,29.90,ENE,68,0.0,0.2,66,0.00,,,0.00,WUHU216HW,2013-05-27 19:40:00,
2013-05-27 15:45:00,80.0,67.6,29.89,SSE,158,0.0,1.1,66,0.00,,,0.00,WUHU216HW,2013-05-27 19:45:00,
2013-05-27 15:50:00,80.2,67.8,29.89,SE,135,0.0,1.1,66,0.00,,,0.00,WUHU216HW,2013-05-27 19:50:00,
2013-05-27 15:55:00,80.2,67.3,29.88,NW,315,0.0,0.0,65,0.00,,,0.00,WUHU216HW,2013-05-27 19:55:00,
2013-05-27 16:00:00,80.2,67.3,29.88,SE,135,3.3,3.3,65,0.00,,,0.00,WUHU216HW,2013-05-27 20:00:00,
2013-05-27 16:05:00,80.4,67.1,29.88,SE,135,2.9,3.3,64,0.00,,,0.00,WUHU216HW,2013-05-27 20:05:00,
2013-05-27 16:10:00,80.4,67.5,29.88,SSE,158,0.0,3.3,65,0.00,,,0.00,WUHU216HW,2013-05-27 20:10:00,
2013-05-27 16:15:00,80.4,67.1,29.88,SSE,158,0.0,2.9,64,0.00,,,0.00,WUHU216HW,2013-05-27 20:15:00,
2013-05-27 16:20:00,80.4,66.6,29.88,East,90,0.0,1.3,63,0.00,,,0.00,WUHU216HW,2013-05-27 20:20:00,
2013-05-27 16:25:00,80.4,67.1,29.88,NE,45,0.0,1.5,64,0.00,,,0.00,WUHU216HW,2013-05-27 20:25:00,
2013-05-27 16:30:00,80.4,66.2,29.88,NE,45,2.9,5.3,62,0.00,,,0.00,WUHU216HW,2013-05-27 20:30:00,
2013-05-27 16:35:00,80.2,66.0,29.87,SE,135,7.3,7.3,62,0.00,,,0.00,WUHU216HW,2013-05-27 20:35:00,
2013-05-27 16:40:00,80.2,66.0,29.87,NNW,338,1.3,7.3,62,0.00,,,0.00,WUHU216HW,2013-05-27 20:40:00,
2013-05-27 16:45:00,80.2,65.5,29.87,ENE,68,0.0,7.3,61,0.00,,,0.00,WUHU216HW,2013-05-27 20:45:00,
2013-05-27 16:50:00,80.2,65.5,29.86,SE,135,0.0,6.7,61,0.00,,,0.00,WUHU216HW,2013-05-27 20:50:00,
2013-05-27 16:55:00,80.2,65.1,29.86,NW,315,0.0,0.4,60,0.00,,,0.00,WUHU216HW,2013-05-27 20:55:00,
2013-05-27 17:00:00,80.2,65.1,29.86,SW,225,0.0,0.4,60,0.00,,,0.00,WUHU216HW,2013-05-27 21:00:00,
2013-05-27 17:05:00,80.2,65.5,29.86,SSE,158,4.0,4.0,61,0.00,,,0.00,WUHU216HW,2013-05-27 21:05:00,
2013-05-27 17:10:00,80.2,65.1,29.86,SSE,158,0.0,4.9,60,0.00,,,0.00,WUHU216HW,2013-05-27 21:10:00,
2013-05-27 17:15:00,80.2,65.5,29.85,SE,135,0.0,5.8,61,0.00,,,0.00,WUHU216HW,2013-05-27 21:15:00,
2013-05-27 17:20:00,80.0,65.4,29.85,ESE,113,0.0,5.8,61,0.00,,,0.00,WUHU216HW,2013-05-27 21:20:00,
2013-05-27 17:25:00,79.8,65.2,29.85,SSE,158,0.0,0.6,61,0.00,,,0.00,WUHU216HW,2013-05-27 21:25:00,
2013-05-27 17:30:00,79.8,65.2,29.85,ESE,113,0.0,0.8,61,0.00,,,0.00,WUHU216HW,2013-05-27 21:30:00,
2013-05-27 17:35:00,79.7,65.1,29.85,ESE,113,0.0,0.8,61,0.00,,,0.00,WUHU216HW,2013-05-27 21:35:00,
2013-05-27 17:40:00,79.7,64.6,29.85,SE,135,0.0,0.8,60,0.00,,,0.00,WUHU216HW,2013-05-27 21:40:00,
2013-05-27 17:45:00,79.7,64.6,29.85,SSE,158,0.0,0.8,60,0.00,,,0.00,WUHU216HW,2013-05-27 21:45:00,
2013-05-27 17:50:00,79.7,64.1,29.85,ESE,113,1.3,1.3,59,0.00,,,0.00,WUHU216HW,2013-05-27 21:50:00,
2013-05-27 17:55:00,79.7,64.1,29.85,SE,135,0.0,1.3,59,0.00,,,0.00,WUHU216HW,2013-05-27 21:55:00,
2013-05-27 18:00:00,79.5,63.9,29.85,ESE,113,0.0,4.4,59,0.00,,,0.00,WUHU216HW,2013-05-27 22:00:00,
2013-05-27 18:05:00,79.5,63.9,29.85,NNW,338,0.0,4.4,59,0.00,,,0.00,WUHU216HW,2013-05-27 22:05:00,
2013-05-27 18:10:00,79.5,63.4,29.85,NW,315,0.0,0.0,58,0.00,,,0.00,WUHU216HW,2013-05-27 22:10:00,
2013-05-27 18:15:00,79.3,63.3,29.85,ESE,113,0.0,0.0,58,0.00,,,0.00,WUHU216HW,2013-05-27 22:15:00,
2013-05-27 18:20:00,79.3,63.3,29.85,NW,315,0.0,0.0,58,0.00,,,0.00,WUHU216HW,2013-05-27 22:20:00,
2013-05-27 18:25:00,79.1,63.1,29.85,South,180,0.0,1.7,58,0.00,,,0.00,WUHU216HW,2013-05-27 22:25:00,
2013-05-27 18:30:00,79.1,63.6,29.85,SE,135,0.0,1.7,59,0.00,,,0.00,WUHU216HW,2013-05-27 22:30:00,
2013-05-27 18:35:00,78.9,63.5,29.85,SE,135,2.0,2.0,59,0.00,,,0.00,WUHU216HW,2013-05-27 22:35:00,
2013-05-27 18:40:00,78.6,63.1,29.85,SE,135,0.0,6.2,59,0.00,,,0.00,WUHU216HW,2013-05-27 22:40:00,
2013-05-27 18:45:00,78.6,63.6,29.85,ESE,113,0.0,6.2,60,0.00,,,0.00,WUHU216HW,2013-05-27 22:45:00,
2013-05-27 18:50:00,78.6,64.1,29.85,SSW,203,0.0,0.0,61,0.00,,,0.00,WUHU216HW,2013-05-27 22:50:00,
2013-05-27 18:55:00,78.4,63.9,29.85,NW,315,0.0,0.0,61,0.00,,,0.00,WUHU216HW,2013-05-27 22:55:00,
2013-05-27 19:00:00,78.4,63.9,29.85,ENE,68,0.0,0.0,61,0.00,,,0.00,WUHU216HW,2013-05-27 23:00:00,
2013-05-27 19:05:00,78.2,63.3,29.84,NNE,23,0.0,3.3,60,0.00,,,0.00,WUHU216HW,2013-05-27 23:05:00,
2013-05-27 19:10:00,78.0,62.6,29.84,ESE,113,0.0,3.3,59,0.00,,,0.00,WUHU216HW,2013-05-27 23:10:00,
2013-05-27 19:15:00,78.0,62.6,29.84,SE,135,0.0,0.0,59,0.00,,,0.00,WUHU216HW,2013-05-27 23:15:00,
2013-05-27 19:20:00,78.0,62.6,29.84,SE,135,0.4,0.4,59,0.00,,,0.00,WUHU216HW,2013-05-27 23:20:00,
2013-05-27 19:25:00,77.9,62.4,29.83,SE,135,0.0,0.4,59,0.00,,,0.00,WUHU216HW,2013-05-27 23:25:00,
2013-05-27 19:30:00,77.9,62.4,29.84,SE,135,0.6,0.6,59,0.00,,,0.00,WUHU216HW,2013-05-27 23:30:00,
2013-05-27 19:35:00,77.7,62.2,29.84,ESE,113,0.0,0.6,59,0.00,,,0.00,WUHU216HW,2013-05-27 23:35:00,
2013-05-27 19:40:00,77.7,62.2,29.84,SSE,158,0.0,0.0,59,0.00,,,0.00,WUHU216HW,2013-05-27 23:40:00,
2013-05-27 19:45:00,77.5,62.0,29.84,East,90,0.0,0.0,59,0.00,,,0.00,WUHU216HW,2013-05-27 23:45:00,
2013-05-27 19:50:00,77.5,62.6,29.84,East,90,0.0,0.0,60,0.00,,,0.00,WUHU216HW,2013-05-27 23:50:00,
2013-05-27 19:56:00,77.5,62.6,29.84,East,90,0.0,0.0,60,0.00,,,0.00,WUHU216HW,2013-05-27 23:56:00,
2013-05-27 20:01:00,77.1,62.6,29.84,ENE,68,0.0,0.0,61,0.00,,,0.00,WUHU216HW,2013-05-28 00:01:00,
2013-05-27 20:06:00,77.0,62.5,29.84,ENE,68,0.0,0.0,61,0.00,,,0.00,WUHU216HW,2013-05-28 00:06:00,
2013-05-27 20:11:00,76.8,62.3,29.84,NNE,23,0.0,0.0,61,0.00,,,0.00,WUHU216HW,2013-05-28 00:11:00,
2013-05-27 20:16:00,76.8,62.3,29.83,SE,135,0.0,0.0,61,0.00,,,0.00,WUHU216HW,2013-05-28 00:16:00,
2013-05-27 20:21:00,76.8,61.8,29.83,ESE,113,0.0,0.0,60,0.00,,,0.00,WUHU216HW,2013-05-28 00:21:00,
2013-05-27 20:26:00,76.6,61.7,29.83,South,180,0.0,0.0,60,0.00,,,0.00,WUHU216HW,2013-05-28 00:26:00,
2013-05-27 20:31:00,76.6,61.7,29.83,SE,135,0.0,0.0,60,0.00,,,0.00,WUHU216HW,2013-05-28 00:31:00,
2013-05-27 20:36:00,76.4,62.0,29.83,NNW,338,0.0,0.0,61,0.00,,,0.00,WUHU216HW,2013-05-28 00:36:00,
2013-05-27 20:41:00,76.2,61.8,29.83,SE,135,0.0,0.0,61,0.00,,,0.00,WUHU216HW,2013-05-28 00:41:00,
2013-05-27 20:46:00,76.2,61.8,29.83,SE,135,0.0,0.0,61,0.00,,,0.00,WUHU216HW,2013-05-28 00:46:00,
2013-05-27 20:51:00,75.9,61.9,29.84,SSE,158,0.0,0.0,62,0.00,,,0.00,WUHU216HW,2013-05-28 00:51:00,
2013-05-27 20:56:00,75.9,61.9,29.84,East,90,0.0,0.0,62,0.00,,,0.00,WUHU216HW,2013-05-28 00:56:00,
2013-05-27 21:01:00,75.7,61.7,29.84,South,180,0.0,0.0,62,0.00,,,0.00,WUHU216HW,2013-05-28 01:01:00,
2013-05-27 21:06:00,75.5,61.6,29.84,SE,135,0.0,6.4,62,0.00,,,0.00,WUHU216HW,2013-05-28 01:06:00,
2013-05-27 21:11:00,75.3,61.4,29.84,SE,135,0.0,6.4,62,0.00,,,0.00,WUHU216HW,2013-05-28 01:11:00,
2013-05-27 21:16:00,75.3,61.4,29.84,East,90,0.0,0.0,62,0.00,,,0.00,WUHU216HW,2013-05-28 01:16:00,
2013-05-27 21:21:00,75.3,61.4,29.84,SSE,158,1.1,1.1,62,0.00,,,0.00,WUHU216HW,2013-05-28 01:21:00,
2013-05-27 21:26:00,75.2,61.3,29.84,South,180,0.0,1.1,62,0.00,,,0.00,WUHU216HW,2013-05-28 01:26:00,
2013-05-27 21:31:00,75.0,61.1,29.85,SE,135,0.0,1.1,62,0.00,,,0.00,WUHU216HW,2013-05-28 01:31:00,
2013-05-27 21:36:00,75.0,61.1,29.86,NW,315,1.1,5.3,62,0.00,,,0.00,WUHU216HW,2013-05-28 01:36:00,
2013-05-27 21:41:00,75.3,61.8,29.87,West,270,0.0,10.9,63,0.00,,,0.00,WUHU216HW,2013-05-28 01:41:00,
2013-05-27 21:46:00,75.0,62.8,29.88,WNW,293,6.7,10.9,66,0.00,,,0.00,WUHU216HW,2013-05-28 01:46:00,
2013-05-27 21:51:00,73.5,62.8,29.88,West,270,2.2,6.7,69,0.00,,,0.00,WUHU216HW,2013-05-28 01:51:00,
2013-05-27 21:56:00,72.6,62.7,29.88,West,270,0.0,4.2,71,0.02,,,0.03,WUHU216HW,2013-05-28 01:56:00,
2013-05-27 22:01:00,71.9,62.4,29.88,WNW,293,2.0,2.6,72,0.04,,,0.05,WUHU216HW,2013-05-28 02:01:00,
2013-05-27 22:06:00,70.8,62.1,29.88,ESE,113,0.0,2.0,74,0.04,,,0.05,WUHU216HW,2013-05-28 02:06:00,
2013-05-27 22:11:00,70.5,62.1,29.88,South,180,0.0,0.0,75,0.06,,,0.07,WUHU216HW,2013-05-28 02:11:00,
2013-05-27 22:16:00,70.1,62.1,29.88,SE,135,0.0,0.0,76,0.06,,,0.07,WUHU216HW,2013-05-28 02:16:00,
2013-05-27 22:21:00,69.6,61.6,29.87,SE,135,0.0,0.0,76,0.06,,,0.07,WUHU216HW,2013-05-28 02:21:00,
2013-05-27 22:26:00,69.4,61.8,29.88,ESE,113,0.0,0.0,77,0.08,,,0.09,WUHU216HW,2013-05-28 02:26:00,
2013-05-27 22:31:00,69.0,61.5,29.88,ESE,113,0.0,0.0,77,0.08,,,0.09,WUHU216HW,2013-05-28 02:31:00,
2013-05-27 22:36:00,68.7,61.5,29.88,SSW,203,0.0,0.0,78,0.10,,,0.11,WUHU216HW,2013-05-28 02:36:00,
2013-05-27 22:41:00,68.7,61.5,29.89,North,0,0.0,0.0,78,0.10,,,0.11,WUHU216HW,2013-05-28 02:41:00,
2013-05-27 22:46:00,68.5,61.8,29.89,NNE,23,0.0,0.0,79,0.10,,,0.11,WUHU216HW,2013-05-28 02:46:00,
2013-05-27 22:51:00,68.1,61.4,29.89,NNE,23,0.0,0.0,79,0.12,,,0.11,WUHU216HW,2013-05-28 02:51:00,
2013-05-27 22:56:00,67.8,61.1,29.89,NNE,23,0.0,0.0,79,0.10,,,0.13,WUHU216HW,2013-05-28 02:56:00,
2013-05-27 23:01:00,67.8,61.5,29.88,NE,45,0.0,0.0,80,0.10,,,0.15,WUHU216HW,2013-05-28 03:01:00,
2013-05-27 23:06:00,67.6,61.6,29.88,East,90,0.0,0.0,81,0.08,,,0.15,WUHU216HW,2013-05-28 03:06:00,
2013-05-27 23:11:00,67.2,61.3,29.87,East,90,0.0,0.0,81,0.10,,,0.17,WUHU216HW,2013-05-28 03:11:00,
2013-05-27 23:16:00,67.1,61.1,29.87,ENE,68,0.0,0.0,81,0.10,,,0.17,WUHU216HW,2013-05-28 03:16:00,
2013-05-27 23:21:00,66.9,60.9,29.85,ESE,113,0.0,0.0,81,0.12,,,0.19,WUHU216HW,2013-05-28 03:21:00,
2013-05-27 23:26:00,66.7,61.0,29.84,South,180,0.0,0.0,82,0.10,,,0.19,WUHU216HW,2013-05-28 03:26:00,
2013-05-27 23:31:00,66.5,60.9,29.84,SSE,158,0.0,1.3,82,0.10,,,0.19,WUHU216HW,2013-05-28 03:31:00,
2013-05-27 23:36:00,66.2,60.8,29.85,NNE,23,0.0,1.3,83,0.08,,,0.19,WUHU216HW,2013-05-28 03:36:00,
2013-05-27 23:41:00,66.0,60.6,29.85,South,180,0.0,0.0,83,0.08,,,0.19,WUHU216HW,2013-05-28 03:41:00,
2013-05-27 23:46:00,66.0,60.6,29.85,SE,135,0.0,0.0,83,0.08,,,0.19,WUHU216HW,2013-05-28 03:46:00,
2013-05-27 23:51:00,65.8,60.8,29.86,SSE,158,0.0,0.0,84,0.06,,,0.19,WUHU216HW,2013-05-28 03:51:00,
2013-05-27 23:56:00,65.8,60.8,29.87,SSE,158,0.0,0.0,84,0.06,,,0.19,WUHU216HW,2013-05-28 03:56:00,